Regional Weather Roundup
Issued by NWS

Home | Current Version | Previous Version | Graphics & Text | Print | Product List | Glossary On
Versions: 1 2 3 4 5 6 7 8 9 10 11 12 13 14 15 16 17 18 19 20 21 22 23 24 25 26 27 28 29 30 31 32 33 34 35 36 37 38 39 40 41 42 43 44 45 46 47 48 49 50
000
ASUS44 KMEG 200400
RWRTN
TENNESSEE HOURLY STATE WEATHER ROUNDUP
NATIONAL WEATHER SERVICE MEMPHIS TN
1000 PM CST FRI DEC 19 2014

TNZ002-004-019-021-049-052-054-088>092-200500-
WEST TENNESSEE

CITY           SKY/WX    TMP DP  RH WIND       PRES   REMARKS
MEMPHIS INTL   CLOUDY    42  32  67 NE8       30.24R
NWS MEMPHIS      N/A     40 N/A N/A MISG        N/A
JACKSON        CLOUDY    39  32  76 CALM      30.24S
DYERSBURG      CLOUDY    39  23  52 CALM      30.27S
UNION CITY     MOCLDY    36  30  80 CALM      30.25R
PARIS          PTCLDY    34  27  75 E3        30.24R
LEXINGTON      CLOUDY    37  28  70 NE3       30.23S
SAVANNAH       CLOUDY    37  30  75 CALM      30.24S
$$

TNZ008-025-027-028-033-062-065-066-200500-
NORTH MIDDLE TENNESSEE

CITY           SKY/WX    TMP DP  RH WIND       PRES   REMARKS
NASHVILLE      CLOUDY    37  27  67 N6        30.24S WCI  32
CLARKSVILLE    CLOUDY    36  28  73 N6        30.25S WCI  31
COOKEVILLE     CLEAR     34  28  80 CALM      30.19R
CROSSVILLE     CLOUDY    35  26  69 NE5       30.17F WCI  31
$$

TNZ061-075-076-078-094-096-097-200500-
SOUTH MIDDLE TENNESSEE

CITY           SKY/WX    TMP DP  RH WIND       PRES   REMARKS
FAYETTEVILLE   PTCLDY    36  27  69 MISG      30.17S
TULLAHOMA      CLEAR     36  27  69 E5        30.18F WCI  32
WINCHESTER     CLOUDY    36  30  80 NE5       30.18F WCI  32
SHELBYVILLE    MOCLDY    37  30  75 NE5       30.20F WCI  34
$$

TNZ017-018-042-046-047-200500-
NORTHEAST TENNESSEE

CITY           SKY/WX    TMP DP  RH WIND       PRES   REMARKS
TRI CITIES     PTCLDY    32  26  78 CALM      30.17R
ELIZABETHTON   CLEAR     30  25  80 CALM      30.16R
$$

TNZ012-013-036-069-073-074-200500-
CENTRAL EAST TENNESSEE

CITY           SKY/WX    TMP DP  RH WIND       PRES   REMARKS
KNOXVILLE      CLOUDY    39  27  62 N3        30.19R
OAK RIDGE      CLOUDY    39  28  64 E3        30.19S
GATLINBURG     PTCLDY    34  30  86 CALM      30.18R
$$

TNZ083-085-099-200500-
SOUTHEAST TENNESSEE

CITY           SKY/WX    TMP DP  RH WIND       PRES   REMARKS
CHATTANOOGA    CLOUDY    43  30  60 NW5       30.20S
$$

SKY/WX REPORTED AS FAIR MEANS FEW OR NO CLOUDS BELOW
12 THOUSAND FEET.




USA.gov is the U.S. government's official web portal to all federal, state and local government web resources and services.